Time,TemperatureF,DewpointF,PressureIn,WindDirection,WindDirectionDegrees,WindSpeedMPH,WindSpeedGustMPH,Humidity,HourlyPrecipIn,Conditions,Clouds,dailyrainin,SoftwareType,DateUTC
2013-07-25 00:00:00,55.8,47.2,29.06,NNW,335,0.0,0.0,73,0.00,,,0.00,Weather View 32 v70,2013-07-25 04:00:00,
2013-07-25 00:10:00,55.8,47.2,29.06,NNW,335,0.0,0.0,73,0.00,,,0.00,Weather View 32 v70,2013-07-25 04:10:00,
2013-07-25 00:20:00,55.9,47.4,29.06,NNW,335,0.0,0.0,73,0.00,,,0.00,Weather View 32 v70,2013-07-25 04:20:00,
2013-07-25 00:30:00,56.1,47.6,29.06,NNW,335,0.0,0.0,73,0.00,,,0.00,Weather View 32 v70,2013-07-25 04:30:00,
2013-07-25 00:40:00,55.8,46.8,29.06,NNW,335,0.0,0.0,72,0.00,,,0.00,Weather View 32 v70,2013-07-25 04:40:00,
2013-07-25 00:50:00,55.2,46.7,29.06,NNW,335,0.0,0.0,73,0.00,,,0.00,Weather View 32 v70,2013-07-25 04:50:00,
2013-07-25 01:00:00,54.7,46.2,29.06,NNW,335,0.0,0.0,73,0.00,,,0.00,Weather View 32 v70,2013-07-25 05:00:00,
2013-07-25 01:10:00,54.5,46.4,29.06,NNW,335,0.0,0.0,74,0.00,,,0.00,Weather View 32 v70,2013-07-25 05:10:00,
2013-07-25 01:20:00,54.3,46.2,29.06,NNW,335,0.0,0.0,74,0.00,,,0.00,Weather View 32 v70,2013-07-25 05:20:00,
2013-07-25 01:30:00,54.1,46.0,29.03,NNW,335,0.0,0.0,74,0.00,,,0.00,Weather View 32 v70,2013-07-25 05:30:00,
2013-07-25 01:40:00,53.8,46.0,29.03,NNW,335,0.0,0.0,75,0.00,,,0.00,Weather View 32 v70,2013-07-25 05:40:00,
2013-07-25 01:50:00,53.6,45.9,29.03,NNW,335,0.0,0.0,75,0.00,,,0.00,Weather View 32 v70,2013-07-25 05:50:00,
2013-07-25 02:00:00,53.4,46.0,29.03,NNW,335,0.0,0.0,76,0.00,,,0.00,Weather View 32 v70,2013-07-25 06:00:00,
2013-07-25 02:10:00,53.2,45.9,29.06,NNW,335,0.0,0.0,76,0.00,,,0.00,Weather View 32 v70,2013-07-25 06:10:00,
2013-07-25 02:20:00,53.2,46.2,29.06,NNW,335,0.0,0.0,77,0.00,,,0.00,Weather View 32 v70,2013-07-25 06:20:00,
2013-07-25 02:30:00,53.1,46.0,29.06,NNW,335,0.0,0.0,77,0.00,,,0.00,Weather View 32 v70,2013-07-25 06:30:00,
2013-07-25 02:40:00,52.9,46.2,29.06,NNW,335,0.0,0.0,78,0.00,,,0.00,Weather View 32 v70,2013-07-25 06:40:00,
2013-07-25 02:50:00,52.7,45.7,29.06,NNW,335,0.0,0.0,77,0.00,,,0.00,Weather View 32 v70,2013-07-25 06:50:00,
2013-07-25 03:00:00,52.3,45.7,29.06,NNW,335,0.0,0.0,78,0.00,,,0.00,Weather View 32 v70,2013-07-25 07:00:00,
2013-07-25 03:10:00,52.2,45.8,29.06,NNW,335,0.0,0.0,79,0.00,,,0.00,Weather View 32 v70,2013-07-25 07:10:00,
2013-07-25 03:20:00,52.0,45.7,29.06,NNW,335,0.0,0.0,79,0.00,,,0.00,Weather View 32 v70,2013-07-25 07:20:00,
2013-07-25 03:30:00,51.6,45.3,29.06,NNW,335,0.0,0.0,79,0.00,,,0.00,Weather View 32 v70,2013-07-25 07:30:00,
2013-07-25 03:40:00,51.6,45.6,29.06,NNW,335,0.0,0.0,80,0.00,,,0.00,Weather View 32 v70,2013-07-25 07:40:00,
2013-07-25 03:50:00,51.4,45.5,29.06,NNW,335,0.0,0.0,80,0.00,,,0.00,Weather View 32 v70,2013-07-25 07:50:00,
2013-07-25 04:00:00,51.3,45.6,29.06,NNW,335,0.0,0.0,81,0.00,,,0.00,Weather View 32 v70,2013-07-25 08:00:00,
2013-07-25 04:10:00,51.1,45.1,29.06,NNW,335,0.0,0.0,80,0.00,,,0.00,Weather View 32 v70,2013-07-25 08:10:00,
2013-07-25 04:20:00,51.3,45.6,29.06,NNW,335,0.0,0.0,81,0.00,,,0.00,Weather View 32 v70,2013-07-25 08:20:00,
2013-07-25 04:30:00,50.9,45.3,29.06,NNW,335,0.0,0.0,81,0.00,,,0.00,Weather View 32 v70,2013-07-25 08:30:00,
2013-07-25 04:40:00,50.7,45.1,29.06,NNW,335,0.0,0.0,81,0.00,,,0.00,Weather View 32 v70,2013-07-25 08:40:00,
2013-07-25 04:50:00,50.5,44.9,29.06,NNW,335,0.0,0.0,81,0.00,,,0.00,Weather View 32 v70,2013-07-25 08:50:00,
2013-07-25 05:00:00,50.7,45.1,29.06,NNW,335,0.0,0.0,81,0.00,,,0.00,Weather View 32 v70,2013-07-25 09:00:00,
2013-07-25 05:10:00,50.4,44.7,29.06,NNW,335,0.0,0.0,81,0.00,,,0.00,Weather View 32 v70,2013-07-25 09:10:00,
2013-07-25 05:20:00,50.4,44.7,29.06,NNW,335,0.0,0.0,81,0.00,,,0.00,Weather View 32 v70,2013-07-25 09:20:00,
2013-07-25 05:30:00,50.2,44.9,29.06,NNW,335,0.0,0.0,82,0.00,,,0.00,Weather View 32 v70,2013-07-25 09:30:00,
2013-07-25 05:40:00,49.8,44.2,29.06,NNW,335,0.0,0.0,81,0.00,,,0.00,Weather View 32 v70,2013-07-25 09:40:00,
2013-07-25 05:50:00,50.0,44.7,29.06,NNW,335,0.0,0.0,82,0.00,,,0.00,Weather View 32 v70,2013-07-25 09:50:00,
2013-07-25 06:00:00,50.0,44.7,29.09,NNW,335,0.0,0.0,82,0.00,,,0.00,Weather View 32 v70,2013-07-25 10:00:00,
2013-07-25 06:10:00,49.6,44.4,29.09,NNW,335,0.0,0.0,82,0.00,,,0.00,Weather View 32 v70,2013-07-25 10:10:00,
2013-07-25 06:20:00,49.6,44.7,29.09,NNW,335,0.0,0.0,83,0.00,,,0.00,Weather View 32 v70,2013-07-25 10:20:00,
2013-07-25 06:25:00,49.6,44.7,29.09,NNW,335,0.0,0.0,83,0.00,,,0.00,Weather View 32 v70,2013-07-25 10:25:00,
2013-07-25 06:40:00,49.3,44.3,29.09,NNW,335,0.0,0.0,83,0.00,,,0.00,Weather View 32 v70,2013-07-25 10:40:00,
2013-07-25 06:50:00,49.5,44.5,29.09,NNW,335,0.0,0.0,83,0.00,,,0.00,Weather View 32 v70,2013-07-25 10:50:00,
2013-07-25 07:00:00,49.6,44.7,29.09,NNW,335,0.0,0.0,83,0.00,,,0.00,Weather View 32 v70,2013-07-25 11:00:00,
2013-07-25 07:10:00,49.8,45.2,29.09,NNW,335,0.0,0.0,84,0.00,,,0.00,Weather View 32 v70,2013-07-25 11:10:00,
2013-07-25 07:20:00,50.2,45.5,29.09,NNW,335,0.0,0.0,84,0.00,,,0.00,Weather View 32 v70,2013-07-25 11:20:00,
2013-07-25 07:26:00,50.2,45.5,29.09,NNW,335,0.0,0.0,84,0.00,,,0.00,Weather View 32 v70,2013-07-25 11:26:00,
2013-07-25 07:40:00,51.3,46.9,29.09,NNW,335,0.0,0.0,85,0.00,,,0.00,Weather View 32 v70,2013-07-25 11:40:00,
2013-07-25 07:50:00,52.0,47.6,29.09,NNW,335,0.0,0.0,85,0.00,,,0.00,Weather View 32 v70,2013-07-25 11:50:00,
2013-07-25 08:00:00,52.7,48.3,29.09,NNW,335,0.0,0.0,85,0.00,,,0.00,Weather View 32 v70,2013-07-25 12:00:00,
2013-07-25 08:10:00,53.2,49.2,29.09,NNW,335,0.0,0.0,86,0.00,,,0.00,Weather View 32 v70,2013-07-25 12:10:00,
2013-07-25 08:20:00,54.0,50.2,29.09,NNW,335,0.0,0.0,87,0.00,,,0.00,Weather View 32 v70,2013-07-25 12:20:00,
2013-07-25 08:27:00,54.0,50.2,29.09,NNW,335,0.0,0.0,87,0.00,,,0.00,Weather View 32 v70,2013-07-25 12:27:00,
2013-07-25 08:40:00,55.8,51.9,29.12,NNW,335,0.0,0.0,87,0.00,,,0.00,Weather View 32 v70,2013-07-25 12:40:00,
2013-07-25 08:50:00,56.3,52.2,29.12,NNW,335,0.0,0.0,86,0.00,,,0.00,Weather View 32 v70,2013-07-25 12:50:00,
2013-07-25 09:00:00,57.0,51.9,29.12,East,96,0.0,0.0,83,0.00,,,0.00,Weather View 32 v70,2013-07-25 13:00:00,
2013-07-25 09:10:00,57.9,50.0,29.09,East,96,0.0,0.0,75,0.00,,,0.00,Weather View 32 v70,2013-07-25 13:10:00,
2013-07-25 09:20:00,59.2,48.6,29.09,East,96,0.0,0.0,68,0.00,,,0.00,Weather View 32 v70,2013-07-25 13:20:00,
2013-07-25 09:28:00,59.2,48.6,29.09,East,96,0.0,0.0,68,0.00,,,0.00,Weather View 32 v70,2013-07-25 13:28:00,
2013-07-25 09:40:00,61.7,44.8,29.12,ESE,102,0.0,0.0,54,0.00,,,0.00,Weather View 32 v70,2013-07-25 13:40:00,
2013-07-25 09:50:00,63.5,47.5,29.12,ESE,104,0.0,0.0,56,0.00,,,0.00,Weather View 32 v70,2013-07-25 13:50:00,
2013-07-25 10:00:00,64.9,43.6,29.12,East,93,0.0,0.0,46,0.00,,,0.00,Weather View 32 v70,2013-07-25 14:00:00,
2013-07-25 10:10:00,66.9,43.6,29.12,NNW,341,0.0,0.0,43,0.00,,,0.00,Weather View 32 v70,2013-07-25 14:10:00,
2013-07-25 10:20:00,68.0,41.4,29.12,ESE,112,0.0,4.0,38,0.00,,,0.00,Weather View 32 v70,2013-07-25 14:20:00,
2013-07-25 10:29:00,68.0,41.4,29.12,ESE,112,0.0,4.0,38,0.00,,,0.00,Weather View 32 v70,2013-07-25 14:29:00,
2013-07-25 10:40:00,70.0,41.0,29.12,ESE,118,0.0,4.0,35,0.00,,,0.00,Weather View 32 v70,2013-07-25 14:40:00,
2013-07-25 10:50:00,70.3,41.3,29.12,ESE,119,0.0,4.0,35,0.00,,,0.00,Weather View 32 v70,2013-07-25 14:50:00,
2013-07-25 11:00:00,71.8,41.1,29.12,SSE,155,0.0,4.0,33,0.00,,,0.00,Weather View 32 v70,2013-07-25 15:00:00,
2013-07-25 11:10:00,72.5,40.1,29.12,SW,214,0.0,4.0,31,0.00,,,0.00,Weather View 32 v70,2013-07-25 15:10:00,
2013-07-25 11:20:00,72.1,40.6,29.12,NW,313,0.0,3.0,32,0.00,,,0.00,Weather View 32 v70,2013-07-25 15:20:00,
2013-07-25 11:29:00,72.1,40.6,29.12,NW,313,0.0,3.0,32,0.00,,,0.00,Weather View 32 v70,2013-07-25 15:29:00,
2013-07-25 11:40:00,75.7,42.9,29.12,SE,127,0.0,3.0,31,0.00,,,0.00,Weather View 32 v70,2013-07-25 15:40:00,
2013-07-25 11:50:00,76.3,36.7,29.12,NNW,344,0.0,4.0,24,0.00,,,0.00,Weather View 32 v70,2013-07-25 15:50:00,
2013-07-25 12:00:00,76.6,41.0,29.12,WSW,237,0.0,4.0,28,0.00,,,0.00,Weather View 32 v70,2013-07-25 16:00:00,
2013-07-25 12:10:00,77.9,42.1,29.12,WSW,250,0.0,4.0,28,0.00,,,0.00,Weather View 32 v70,2013-07-25 16:10:00,
2013-07-25 12:20:00,78.8,44.7,29.12,SSE,166,0.0,4.0,30,0.00,,,0.00,Weather View 32 v70,2013-07-25 16:20:00,
2013-07-25 12:30:00,79.7,39.6,29.12,WSW,257,0.0,4.0,24,0.00,,,0.00,Weather View 32 v70,2013-07-25 16:30:00,
2013-07-25 12:40:00,80.1,36.5,29.12,NW,322,3.0,5.0,21,0.00,,,0.00,Weather View 32 v70,2013-07-25 16:40:00,
2013-07-25 12:50:00,80.4,40.2,29.12,ESE,104,3.0,5.0,24,0.00,,,0.00,Weather View 32 v70,2013-07-25 16:50:00,
2013-07-25 13:00:00,79.3,35.9,29.12,WSW,244,0.0,5.0,21,0.00,,,0.00,Weather View 32 v70,2013-07-25 17:00:00,
2013-07-25 13:10:00,79.9,42.8,29.12,North,0,3.0,5.0,27,0.00,,,0.00,Weather View 32 v70,2013-07-25 17:10:00,
2013-07-25 13:20:00,79.7,40.7,29.12,North,353,0.0,5.0,25,0.00,,,0.00,Weather View 32 v70,2013-07-25 17:20:00,
2013-07-25 13:30:00,80.4,38.0,29.12,WSW,253,0.0,5.0,22,0.00,,,0.00,Weather View 32 v70,2013-07-25 17:30:00,
2013-07-25 13:40:00,81.0,37.2,29.12,WNW,287,0.0,4.0,21,0.00,,,0.00,Weather View 32 v70,2013-07-25 17:40:00,
2013-07-25 13:50:00,79.3,37.1,29.12,South,182,0.0,4.0,22,0.00,,,0.00,Weather View 32 v70,2013-07-25 17:50:00,
2013-07-25 14:00:00,80.6,40.4,29.09,NNE,31,0.0,4.0,24,0.00,,,0.00,Weather View 32 v70,2013-07-25 18:00:00,
2013-07-25 14:10:00,77.5,35.6,29.09,NNW,337,0.0,4.0,22,0.00,,,0.00,Weather View 32 v70,2013-07-25 18:10:00,
2013-07-25 14:20:00,74.3,38.1,29.09,NNW,337,0.0,4.0,27,0.00,,,0.00,Weather View 32 v70,2013-07-25 18:20:00,
2013-07-25 14:30:00,72.7,41.0,29.09,NNW,337,0.0,4.0,32,0.00,,,0.00,Weather View 32 v70,2013-07-25 18:30:00,
2013-07-25 14:40:00,74.1,41.5,29.09,WNW,292,0.0,4.0,31,0.00,,,0.00,Weather View 32 v70,2013-07-25 18:40:00,
2013-07-25 14:50:00,73.9,38.7,29.09,NNW,345,0.0,4.0,28,0.00,,,0.00,Weather View 32 v70,2013-07-25 18:50:00,
2013-07-25 15:00:00,73.8,40.3,29.09,NNW,345,0.0,4.0,30,0.00,,,0.00,Weather View 32 v70,2013-07-25 19:00:00,
2013-07-25 15:10:00,75.6,41.9,29.09,ESE,108,3.0,3.0,30,0.00,,,0.00,Weather View 32 v70,2013-07-25 19:10:00,
2013-07-25 15:20:00,77.2,38.5,29.09,North,0,0.0,3.0,25,0.00,,,0.00,Weather View 32 v70,2013-07-25 19:20:00,
2013-07-25 15:30:00,76.5,36.9,29.09,ESE,108,0.0,4.0,24,0.00,,,0.00,Weather View 32 v70,2013-07-25 19:30:00,
2013-07-25 15:40:00,74.1,34.9,29.09,SW,232,0.0,4.0,24,0.00,,,0.00,Weather View 32 v70,2013-07-25 19:40:00,
2013-07-25 15:50:00,73.4,35.3,29.09,SSW,207,2.0,4.0,25,0.00,,,0.00,Weather View 32 v70,2013-07-25 19:50:00,
2013-07-25 16:00:00,73.0,37.0,29.09,WNW,284,2.0,4.0,27,0.00,,,0.00,Weather View 32 v70,2013-07-25 20:00:00,
2013-07-25 16:10:00,73.4,37.3,29.06,East,98,3.0,4.0,27,0.00,,,0.00,Weather View 32 v70,2013-07-25 20:10:00,
2013-07-25 16:20:00,74.7,35.4,29.06,SSE,166,0.0,5.0,24,0.00,,,0.00,Weather View 32 v70,2013-07-25 20:20:00,
2013-07-25 16:30:00,73.9,33.7,29.06,NNW,331,3.0,5.0,23,0.00,,,0.00,Weather View 32 v70,2013-07-25 20:30:00,
2013-07-25 16:40:00,73.8,38.5,29.06,SW,215,0.0,5.0,28,0.00,,,0.00,Weather View 32 v70,2013-07-25 20:40:00,
2013-07-25 16:50:00,73.6,35.5,29.06,ESE,117,0.0,5.0,25,0.00,,,0.00,Weather View 32 v70,2013-07-25 20:50:00,
2013-07-25 17:00:00,73.0,41.4,29.06,South,172,0.0,5.0,32,0.00,,,0.00,Weather View 32 v70,2013-07-25 21:00:00,
2013-07-25 17:10:00,72.5,38.4,29.06,NNW,333,0.0,5.0,29,0.00,,,0.00,Weather View 32 v70,2013-07-25 21:10:00,
2013-07-25 17:20:00,72.7,39.4,29.06,NW,313,0.0,4.0,30,0.00,,,0.00,Weather View 32 v70,2013-07-25 21:20:00,
2013-07-25 17:30:00,73.0,37.9,29.06,NNW,329,0.0,4.0,28,0.00,,,0.00,Weather View 32 v70,2013-07-25 21:30:00,
2013-07-25 17:35:00,73.0,37.9,29.06,NNW,329,0.0,4.0,28,0.00,,,0.00,Weather View 32 v70,2013-07-25 21:35:00,
2013-07-25 17:50:00,72.3,35.4,29.06,NW,309,3.0,4.0,26,0.00,,,0.00,Weather View 32 v70,2013-07-25 21:50:00,
2013-07-25 18:00:00,72.3,37.3,29.06,SSW,195,0.0,4.0,28,0.00,,,0.00,Weather View 32 v70,2013-07-25 22:00:00,
2013-07-25 18:10:00,72.7,36.7,29.06,NE,41,0.0,4.0,27,0.00,,,0.00,Weather View 32 v70,2013-07-25 22:10:00,
2013-07-25 18:20:00,73.6,35.5,29.06,NW,325,0.0,3.0,25,0.00,,,0.00,Weather View 32 v70,2013-07-25 22:20:00,
2013-07-25 18:30:00,73.8,37.6,29.06,NNW,327,0.0,3.0,27,0.00,,,0.00,Weather View 32 v70,2013-07-25 22:30:00,
2013-07-25 18:36:00,73.8,37.6,29.06,NNW,327,0.0,3.0,27,0.00,,,0.00,Weather View 32 v70,2013-07-25 22:36:00,
2013-07-25 18:50:00,72.7,34.7,29.06,SSW,198,0.0,3.0,25,0.00,,,0.00,Weather View 32 v70,2013-07-25 22:50:00,
2013-07-25 19:00:00,72.5,38.4,29.06,SSW,198,0.0,3.0,29,0.00,,,0.00,Weather View 32 v70,2013-07-25 23:00:00,
2013-07-25 19:10:00,72.7,35.7,29.06,SSW,198,0.0,3.0,26,0.00,,,0.00,Weather View 32 v70,2013-07-25 23:10:00,
2013-07-25 19:20:00,72.5,38.4,29.06,SSW,198,0.0,3.0,29,0.00,,,0.00,Weather View 32 v70,2013-07-25 23:20:00,
2013-07-25 19:30:00,72.3,39.9,29.06,SSW,198,0.0,3.0,31,0.00,,,0.00,Weather View 32 v70,2013-07-25 23:30:00,
2013-07-25 19:36:00,72.3,39.9,29.06,SSW,198,0.0,3.0,31,0.00,,,0.00,Weather View 32 v70,2013-07-25 23:36:00,
2013-07-25 19:50:00,71.1,40.4,29.06,SSW,198,0.0,0.0,33,0.00,,,0.00,Weather View 32 v70,2013-07-25 23:50:00,
2013-07-25 20:00:00,69.3,43.2,29.06,SSW,198,0.0,0.0,39,0.00,,,0.00,Weather View 32 v70,2013-07-26 00:00:00,
2013-07-25 20:10:00,68.2,44.8,29.06,SSW,198,0.0,0.0,43,0.00,,,0.00,Weather View 32 v70,2013-07-26 00:10:00,
2013-07-25 20:20:00,67.1,46.1,29.06,SSW,198,0.0,0.0,47,0.00,,,0.00,Weather View 32 v70,2013-07-26 00:20:00,
2013-07-25 20:30:00,66.2,46.4,29.06,SSW,198,0.0,0.0,49,0.00,,,0.00,Weather View 32 v70,2013-07-26 00:30:00,
2013-07-25 20:37:00,66.2,46.4,29.06,SSW,198,0.0,0.0,49,0.00,,,0.00,Weather View 32 v70,2013-07-26 00:37:00,
2013-07-25 20:50:00,65.1,48.5,29.06,SSW,198,0.0,0.0,55,0.00,,,0.00,Weather View 32 v70,2013-07-26 00:50:00,
2013-07-25 21:00:00,64.4,48.8,29.06,SSW,198,0.0,0.0,57,0.00,,,0.00,Weather View 32 v70,2013-07-26 01:00:00,
2013-07-25 21:10:00,63.9,49.7,29.03,SSW,198,0.0,0.0,60,0.00,,,0.00,Weather View 32 v70,2013-07-26 01:10:00,
2013-07-25 21:20:00,63.3,50.5,29.03,SSW,198,0.0,0.0,63,0.00,,,0.00,Weather View 32 v70,2013-07-26 01:20:00,
2013-07-25 21:30:00,63.1,51.2,29.03,SSW,198,0.0,0.0,65,0.00,,,0.00,Weather View 32 v70,2013-07-26 01:30:00,
2013-07-25 21:38:00,63.1,51.2,29.03,SSW,198,0.0,0.0,65,0.00,,,0.00,Weather View 32 v70,2013-07-26 01:38:00,
2013-07-25 21:50:00,62.1,50.5,29.03,SSW,198,0.0,0.0,66,0.00,,,0.00,Weather View 32 v70,2013-07-26 01:50:00,
2013-07-25 22:00:00,61.3,50.7,29.06,SSW,198,0.0,0.0,68,0.00,,,0.00,Weather View 32 v70,2013-07-26 02:00:00,
2013-07-25 22:10:00,61.2,50.9,29.03,SSW,198,0.0,0.0,69,0.00,,,0.00,Weather View 32 v70,2013-07-26 02:10:00,
2013-07-25 22:20:00,61.0,51.1,29.03,SSW,198,0.0,0.0,70,0.00,,,0.00,Weather View 32 v70,2013-07-26 02:20:00,
2013-07-25 22:30:00,60.4,51.0,29.03,SSW,198,0.0,0.0,71,0.00,,,0.00,Weather View 32 v70,2013-07-26 02:30:00,
2013-07-25 22:38:00,60.4,51.0,29.03,SSW,198,0.0,0.0,71,0.00,,,0.00,Weather View 32 v70,2013-07-26 02:38:00,
2013-07-25 22:50:00,59.7,50.7,29.06,SSW,198,0.0,0.0,72,0.00,,,0.00,Weather View 32 v70,2013-07-26 02:50:00,
2013-07-25 23:00:00,59.4,50.3,29.06,SSW,198,0.0,0.0,72,0.00,,,0.00,Weather View 32 v70,2013-07-26 03:00:00,
2013-07-25 23:10:00,59.2,50.5,29.06,SSW,198,0.0,0.0,73,0.00,,,0.00,Weather View 32 v70,2013-07-26 03:10:00,
2013-07-25 23:20:00,59.2,50.9,29.06,SSW,198,0.0,0.0,74,0.00,,,0.00,Weather View 32 v70,2013-07-26 03:20:00,
2013-07-25 23:30:00,59.5,51.2,29.06,SSW,198,0.0,0.0,74,0.00,,,0.00,Weather View 32 v70,2013-07-26 03:30:00,